www.pogodaiklimat.ru

Погода и климат >> Архив погоды >> Россия >> Якутия >> Теплый Ключ


ПОГОДА в Теплом Ключе

  • Прогноз погоды в Теплом Ключе
  • Монитор погоды в Теплом Ключе
  • Климат города

АРХИВ ПОГОДЫ в Теплом Ключе

Время (UTC), дата Ветер
(напр.,м/с)
 
Видим.   Явления Облачность Т
(С)
Тd
(С)
f
(%)
Тe
(С)
Тes
(С)
Комфортность P
(гПа)
Po
(гПа)
Тmin
(С)
Tmax
(С)
R
(мм)
R24
(мм)
S
(см)
12 11.12 СВ 1 н/о н/о -45.2 -50.3 56 -51 -51 опасность
обморожения
1048.5 1004.2
15 11.12 штиль 0 н/о н/о -45.4 -50.5 56 -45 -45 опасность
обморожения
1048.1 1003.8
18 11.12 штиль 0 н/о н/о -43.7 -48.6 58 -44 -44 опасность
обморожения
1047.1 1003.2
21 11.12 штиль 0 10 км ясно -42.9 -47.5 60 -43 -43 опасность
обморожения
1046.4 1002.6 -46.6 36
00 12.12 штиль 0 50 км ясно -44.8 -49.7 58 -45 -45 опасность
обморожения
1046.0 1001.8
03 12.12 штиль 0 50 км ясно -43.8 -49.0 56 -44 -44 опасность
обморожения
1045.7 1001.7
06 12.12 СЗ 1 50 км ясно -43.9 -49.0 57 -50 -50 опасность
обморожения
1045.6 1001.6
09 12.12 штиль 0 10 км ясно -44.3 -49.7 55 -44 -44 опасность
обморожения
1046.1 1002.1 -42.9
12 12.12 штиль 0 н/о н/о -44.6 -49.6 57 -45 -45 опасность
обморожения
1047.0 1002.9
15 12.12 штиль 0 н/о н/о -45.2 -50.3 56 -45 -45 опасность
обморожения
1047.0 1002.8
18 12.12 штиль 0 н/о н/о -44.6 -49.6 57 -45 -45 опасность
обморожения
1046.9 1002.8
21 12.12 штиль 0 10 км ясно -44.3 -48.9 60 -44 -44 опасность
обморожения
1047.5 1003.5 -45.3 36
00 13.12 В 1 50 км 9/0
[Ci fib]
-40.1 -44.8 61 -45 -45 опасность
обморожения
1046.1 1002.9
03 13.12 В 1 50 км 4/0 2000 м
[Ac trans]
-39.0 -43.8 60 -44 -44 опасность
обморожения
1045.2 1002.2
06 13.12 штиль 0 50 км 4/0 2000 м
[Ac trans]
-41.8 -46.3 61 -42 -42 опасность
обморожения
1045.5 1001.9
09 13.12 СВ 1 10 км 4/0 2000 м
[Ac trans]
-44.9 -50.5 53 -51 -51 опасность
обморожения
1045.2 1001.1 -38.7
12 13.12 В 1 н/о н/о -45.7 -50.8 56 -52 -52 опасность
обморожения
1044.2 1000.0
15 13.12 СВ 1 н/о н/о -46.8 -52.1 54 -53 -53 опасность
обморожения
1043.3 998.9
18 13.12 штиль 0 н/о н/о -47.6 -52.9 54 -48 -48 опасность
обморожения
1042.8 998.3
21 13.12 В 1 10 км ясно -47.7 -53.2 53 -54 -54 опасность
обморожения
1041.6 997.1 -47.9 36
00 14.12 СВ 1 50 км 3/0
[Ci fib]
-47.4 -52.2 58 -53 -53 опасность
обморожения
1040.5 996.2
03 14.12 штиль 0 50 км ясно -43.1 -47.5 62 -43 -43 опасность
обморожения
1038.9 995.5
06 14.12 штиль 0 50 км ясно -43.8 -49.0 56 -44 -44 опасность
обморожения
1038.7 995.1
09 14.12 СВ 1 10 км ясно -45.6 -51.3 52 -51 -51 опасность
обморожения
1038.1 994.1 -42.0
12 14.12 В 1 н/о н/о -46.8 -52.1 54 -53 -53 опасность
обморожения
1038.4 994.3
15 14.12 В 1 н/о н/о -46.7 -52.0 54 -53 -53 опасность
обморожения
1037.4 993.4
18 14.12 СВ 1 н/о н/о -46.4 -51.7 55 -52 -52 опасность
обморожения
1037.0 993.0
21 14.12 В 1 10 км ясно -46.5 -52.2 52 -52 -52 опасность
обморожения
1036.1 992.0 -47.0 36
00 15.12 штиль 0 50 км ясно -46.8 -52.2 54 -47 -47 опасность
обморожения
1035.7 991.6
03 15.12 штиль 0 50 км 3/0 2000 м
[Ac trans]
-42.1 -46.9 59 -42 -42 опасность
обморожения
1033.5 990.4
06 15.12 В 1 50 км 3/0 2000 м
[Ac trans]
-41.8 -46.3 61 -47 -47 опасность
обморожения
1032.6 989.5
09 15.12 штиль 0 10 км ясно -41.7 -45.3 68 -42 -42 опасность
обморожения
1032.2 989.4 -40.3
12 15.12 штиль 0 н/о н/о -38.1 -42.4 64 -38 -38 опасность
обморожения
1031.0 988.8
15 15.12 СВ 1 н/о н/о -36.2 -40.3 66 -41 -41 опасность
обморожения
1030.4 988.5
18 15.12 СВ 1 н/о н/о -35.3 -39.3 67 -40 -40 опасность
обморожения
1029.1 987.5
21 15.12 штиль 0 10 км ясно -39.8 -44.2 63 -40 -40 опасность
обморожения
1029.0 986.5 -41.1 36
00 16.12 В 1 н/о н/о -41.0 -45.5 62 -46 -46 опасность
обморожения
1028.7 986.0 -41.2
03 16.12 В 1 н/о н/о -39.1 -43.4 64 -44 -44 опасность
обморожения
1027.7 985.4
06 16.12 В 1 н/о н/о -40.2 -44.7 62 -45 -45 опасность
обморожения
1027.2 984.7
09 16.12 В 1 н/о н/о -40.9 -45.4 62 -46 -46 опасность
обморожения
1027.0 984.4 -38.7
12 16.12 В 1 н/о н/о -43.6 -48.5 58 -49 -49 опасность
обморожения
1027.2 984.1
15 16.12 СВ 1 н/о н/о -43.4 -48.2 59 -49 -49 опасность
обморожения
1026.2 983.2
18 16.12 В 1 н/о н/о -40.9 -45.4 62 -46 -46 опасность
обморожения
1025.1 982.6
21 16.12 штиль 0 10 км 8/0
[Ci fib]
-38.5 -42.7 64 -39 -39 опасность
обморожения
1023.7 981.6 -44.2 36
00 17.12 штиль 0 н/о н/о -40.6 -45.0 62 -41 -41 опасность
обморожения
1023.1 980.7
03 17.12 штиль 0 н/о н/о -38.3 -42.6 64 -38 -38 опасность
обморожения
1022.1 980.2
06 17.12 штиль 0 н/о н/о -37.5 -41.8 64 -38 -38 опасность
обморожения
1022.3 980.5
09 17.12 В 1 н/о н/о -43.9 -48.7 59 -50 -50 опасность
обморожения
1024.1 981.1 -37.2
12 17.12 штиль 0 н/о н/о -46.6 -51.7 56 -47 -47 опасность
обморожения
1025.7 982.1
15 17.12 СВ 1 н/о н/о -47.2 -52.4 55 -53 -53 опасность
обморожения
1026.1 982.4
18 17.12 СВ 1 н/о н/о -48.0 -53.3 54 -54 -54 опасность
обморожения
1027.0 983.1
21 17.12 В 1 10 км ясно -48.2 -53.2 56 -54 -54 опасность
обморожения
1027.6 983.6 -48.5 36
00 18.12 СВ 1 50 км ясно -47.1 -52.2 56 -53 -53 опасность
обморожения
1028.0 984.2
03 18.12 В 1 50 км 8/0 2000 м
[Ac trans Ci fib]
-43.8 -49.0 56 -49 -49 опасность
обморожения
1027.0 983.8
06 18.12 штиль 0 50 км 10/0 2000 м
[Ac trans Cs]
-44.7 -50.5 52 -45 -45 опасность
обморожения
1027.5 984.1
09 18.12 штиль 0 10 км 10/0 2000 м
[Ac trans Cs]
-46.8 -52.2 54 -47 -47 опасность
обморожения
1028.0 984.2 -43.0

 

Местоположение метеостанции Теплый Ключ (Якутия, Россия): широта 62.78 долгота 136.80 высота над уровнем моря 289 м.

В архиве по умолчанию представлена погода в Теплом Ключе за последнюю неделю. Архивные данные за месяц целиком и за предыдущие месяцы, начиная с января 2011 года, Вы можете получить, выбрав интересующий диапазон дат из раскрывающегося списка и нажав кнопку "Ввод!".

Внимание! Время в таблицах - всемирное. Для получения местного времени необходимо прибавить поправку, которая в Теплом Ключе равна 9 ч.

Смотрите также архив погоды в соседних городах и на ближайших метеорологических станциях:

Погода в Охотском Перевозе (Якутия, Россия) (121 км)
Погода в Крест-Хальджае (Якутия, Россия) (122 км)
Погода в Томпо (Якутия, Россия) (139 км)
Погода в Восточной (Якутия, Россия) (150 км)
Погода в Ытык-Кюёле (Якутия, Россия) (175 км)
Погода в Чурапче (Якутия, Россия) (232 км)
Погода в Верхоянском Перевозе (Якутия, Россия) (249 км)
Погода в Агаякане (Якутия, Россия) (254 км)
Погода в Иэме (Якутия, Россия) (284 км)
Погода в Юртах (Якутия, Россия) (286 км)

Пояснения к столбцам:

Ветер - указаны скорость ветра в м/с - средняя за 10 мин, порывы в срок и между сроками (в фигурных скобках) и направление, откуда дует ветер: С - северный, СВ - северо-восточный, В - восточный, ЮВ - юго-восточный, Ю - южный, ЮЗ - юго-западный, З - западный, СЗ - северо-западный.
Видимость - горизонтальная дальность видимости в метрах или километрах. При видимости от 1 до 10 км при отсутствии осадков обычно наблюдается дымка, при ухудшении видимости до 1 км и менее - туман. В сухую погоду видимость может ухудшаться дымом, пылью или мглою.
Явления - указаны атмосферные явления, наблюдавшиеся в срок или в последний час перед сроком; фигурными скобками обозначены явления, наблюдавшиеся между сроками (за 1-3 часа до срока); квадратными скобками обозначены град или гололедные отложения с указанием их диаметра в мм.
Облачность - указаны через наклонную черту общая и нижняя облачность в баллах и высота нижней границы облаков в метрах; квадратными скобками обозначены формы облаков: Ci - перистые, Cs - перисто-слоистые, Cc - перисто-кучевые, Ac - высококучевые, As - высокослоистые, Sc - слоисто-кучевые, Ns - слоисто-дождевые, Cu - кучевые, Cb - кучево-дождевые. Подробнее классификацию облаков см. в Атласе облаков (PDF).
T - Температура воздуха - температура, измеренная на высоте 2 м над землей.
Td - Температура точки росы - температура, при понижении до которой содержащийся в воздухе водяной пар достигнет насыщения.
f - Относительная влажность воздуха - влажноcть воздуха, измеренная на высоте 2 м над землей.
Te - Эффективная температура - температура, которую ощущает одетый по сезону человек в тени. Характеристика душности погоды. При расчете учитывается влияние влажности воздуха и скорости ветра на теплоощущения человека.
Tes - Эффективная температура на солнце - температура, которую ощущает человек, с поправкой на солнечный нагрев. Характеристика знойности погоды. Зависит от высоты солнца над горизонтом, облачности и скорости ветра. Ночью, в пасмурную погоду, а также при ветре 12 м/с и более поправка равна нулю.
P - Атмосферное давление - приведенное к уровню моря атмосферное давление.
Po - Атмосферное давление - измеренное на уровне метеостанции атмосферное давление.
Tmin - Минимальная температура - минимум температуры воздуха на высоте 2 м над землей.
Tmax - Максимальная температура - максимум температуры воздуха на высоте 2 м над землей.
R - Количество осадков - Количество выпавших осадков за период времени, мм. При наведении курсора мыши на число - период времени, за который выпало указанное количество осадков.
R24 - Количество осадков - Количество выпавших осадков за 24 часа, мм.
S - Снежный покров - Высота снежного покрова, см. При наведении курсора мыши на число - состояние снежного покрова и степень покрытия местности в баллах.